Voltar ao catálogo

DELTA 1 DEB

AtivoSSO
NORAD 12175·DEBRIS·🇺🇸 United States

Lançado Mar 5, 1978 de Vandenberg Space Force Base

Loading…

Próximas Passagens (próximas 24 horas)

TLE

AtualizadoSource: Space-Track

Época: Sep 14, 2026, 04:34 UTC

1 12175U 78026Q   26257.19044262  .00000116  00000-0  11235-3 0  9992
2 12175  99.2017 152.0625 0062464 164.8733 356.6321 13.97444263319698

Acompanhe DELTA 1 DEB em tempo real com AllMySat

Download on the App Store